H1 CPF 2 NER 2023 9 8 9 251 01 glonass144 H2 2207501 9144 52984 2023 9 8 0 0 0 2023 9 11 23 45 0 900 1 1 0 0 0 1 H9 10 0 60195 0.00000 0 23789785.348 4971195.535 7763951.548 10 0 60195 900.00000 0 22656687.487 4803326.248 10710080.165 10 0 60195 1800.00000 0 21165306.783 4735279.156 13448371.022 10 0 60195 2700.00000 0 19354486.256 4812662.420 15925786.468 10 0 60195 3600.00000 0 17273336.525 5073102.434 18094382.208 10 0 60195 4500.00000 0 14979319.229 5544453.750 19912224.509 10 0 60195 5400.00000 0 12536000.718 6243430.462 21344189.280 10 0 60195 6300.00000 0 10010569.285 7174716.140 22362628.864 10 0 60195 7200.00000 0 7471218.548 8330589.351 22947895.022 10 0 60195 8100.00000 0 4984504.561 9691080.471 23088709.253 10 0 60195 9000.00000 0 2612784.870 11224653.570 22782374.325 10 0 60195 9900.00000 0 411844.132 12889385.600 22034823.612 10 0 60195 10800.00000 0 -1571196.982 14634594.753 20860507.524 10 0 60195 11700.00000 0 -3299604.521 16402851.397 19282119.042 10 0 60195 12600.00000 0 -4748315.541 18132289.179 17330163.068 10 0 60195 13500.00000 0 -5904731.798 19759121.363 15042376.942 10 0 60195 14400.00000 0 -6768990.685 21220258.685 12463012.146 10 0 60195 15300.00000 0 -7353702.672 22455920.345 9641989.813 10 0 60195 16200.00000 0 -7683166.525 23412129.569 6633945.110 10 0 60195 17100.00000 0 -7792095.281 24042989.394 3497177.888 10 0 60195 18000.00000 0 -7723906.410 24312642.916 292529.123 10 0 60195 18900.00000 0 -7528648.101 24196834.965 -2917795.628 10 0 60195 19800.00000 0 -7260649.081 23684008.430 -6071433.095 10 0 60195 20700.00000 0 -6975991.437 22775887.721 -9107075.912 10 0 60195 21600.00000 0 -6729913.651 21487523.247 -11965668.964 10 0 60195 22500.00000 0 -6574254.420 19846793.424 -14591564.653 10 0 60195 23400.00000 0 -6555046.331 17893383.626 -16933613.815 10 0 60195 24300.00000 0 -6710362.423 15677283.637 -18946170.304 10 0 60195 25200.00000 0 -7068508.064 13256865.555 -20589988.962 10 0 60195 26100.00000 0 -7646636.048 10696621.967 -21832998.758 10 0 60195 27000.00000 0 -8449844.919 8064658.579 -22650935.495 10 0 60195 27900.00000 0 -9470800.039 5430045.925 -23027821.265 10 0 60195 28800.00000 0 -10689894.674 2860140.766 -22956280.926 10 0 60195 29700.00000 0 -12075945.437 417989.035 -22437689.169 10 0 60195 30600.00000 0 -13587393.676 -1840081.281 -21482145.087 10 0 60195 31500.00000 0 -15173962.780 -3866576.935 -20108274.628 10 0 60195 32400.00000 0 -16778701.921 -5624577.879 -18342864.759 10 0 60195 33300.00000 0 -18340330.241 -7089025.401 -16220336.552 10 0 60195 34200.00000 0 -19795782.533 -8247507.020 -13782067.702 10 0 60195 35100.00000 0 -21082848.845 -9100506.684 -11075578.104 10 0 60195 36000.00000 0 -22142796.347 -9661111.438 -8153594.879 10 0 60195 36900.00000 0 -22922862.486 -9954188.899 -5073015.899 10 0 60195 37800.00000 0 -23378514.154 -10015072.341 -1893792.824 10 0 60195 38700.00000 0 -23475377.435 -9887810.949 1322243.643 10 0 60195 39600.00000 0 -23190756.608 -9623061.123 4512592.482 10 0 60195 40500.00000 0 -22514678.942 -9275709.789 7615300.763 10 0 60195 41400.00000 0 -21450421.747 -8902331.546 10570167.482 10 0 60195 42300.00000 0 -20014500.273 -8558588.140 13319909.161 10 0 60195 43200.00000 0 -18236117.749 -8296680.631 15811264.688 10 0 60195 44100.00000 0 -16156101.156 -8162961.847 17996018.509 10 0 60195 45000.00000 0 -13825367.735 -8195809.523 19831923.137 10 0 60195 45900.00000 0 -11302986.362 -8423849.105 21283504.307 10 0 60195 46800.00000 0 -8653914.281 -8864600.287 22322734.523 10 0 60195 47700.00000 0 -5946502.696 -9523603.514 22929563.303 10 0 60195 48600.00000 0 -3249873.721 -10394062.620 23092295.188 10 0 60195 49500.00000 0 -631276.058 -11457018.494 22807809.222 10 0 60195 50400.00000 0 1846472.558 -12682046.751 22081616.349 10 0 60195 51300.00000 0 4127351.984 -14028450.912 20927753.905 10 0 60195 52200.00000 0 6164218.966 -15446902.243 19368519.036 10 0 60195 53100.00000 0 7920514.430 -16881458.953 17434045.613 10 0 60195 54000.00000 0 9371529.209 -18271881.719 15161731.893 10 0 60195 54900.00000 0 10505176.618 -19556150.008 12595528.751 10 0 60195 55800.00000 0 11322240.307 -20673074.948 9785101.049 10 0 60195 56700.00000 0 11836087.509 -21564900.063 6784877.050 10 0 60195 57600.00000 0 12071859.780 -22179781.117 3653003.180 10 0 60195 58500.00000 0 12065175.166 -22474040.785 450223.581 10 0 60195 59400.00000 0 11860396.249 -22414102.765 -2761294.403 10 0 60195 60300.00000 0 11508536.937 -21978022.886 -5919166.205 10 0 60195 61200.00000 0 11064896.348 -21156551.345 -8962003.924 10 0 60195 62100.00000 0 10586519.909 -19953679.669 -11830614.132 10 0 60195 63000.00000 0 10129595.472 -18386647.561 -14469155.740 10 0 60195 63900.00000 0 9746895.206 -16485407.556 -16826234.611 10 0 60195 64800.00000 0 9485372.399 -14291568.291 -18855912.878 10 0 60195 65700.00000 0 9384015.807 -11856859.285 -20518612.568 10 0 60195 66600.00000 0 9472053.491 -9241180.425 -21781895.233 10 0 60195 67500.00000 0 9767583.191 -6510316.965 -22621101.831 10 0 60195 68400.00000 0 10276688.297 -3733415.003 -23019839.934 10 0 60195 69300.00000 0 10993077.773 -980322.601 -22970308.348 10 0 60195 70200.00000 0 11898266.130 1681092.591 -22473452.567 10 0 60195 71100.00000 0 12962286.576 4187537.411 -21538947.815 10 0 60195 72000.00000 0 14144907.682 6482690.756 -20185009.844 10 0 60195 72900.00000 0 15397302.468 8519304.866 -18438037.186 10 0 60195 73800.00000 0 16664099.440 10260923.015 -16332091.881 10 0 60195 74700.00000 0 17885728.781 11683142.557 -13908229.030 10 0 60195 75600.00000 0 19000964.200 12774371.589 -11213688.672 10 0 60195 76500.00000 0 19949552.622 13536048.983 -8300966.259 10 0 60195 77400.00000 0 20674820.078 13982320.359 -5226780.639 10 0 60195 78300.00000 0 21126143.296 14139185.647 -2050960.519 10 0 60195 79200.00000 0 21261182.241 14043156.316 1164727.983 10 0 60195 80100.00000 0 21047779.256 13739480.988 4357788.927 10 0 60195 81000.00000 0 20465444.700 13280016.284 7466214.987 10 0 60195 81900.00000 0 19506366.767 12720834.431 10429692.501 10 0 60195 82800.00000 0 18175903.503 12119669.950 13190769.401 10 0 60195 83700.00000 0 16492536.785 11533313.885 15695963.474 10 0 60195 84600.00000 0 14487290.710 11015065.787 17896789.959 10 0 60195 85500.00000 0 12202639.069 10612350.593 19750689.351 10 0 60196 0.00000 0 9690947.812 10364600.177 21221838.508 10 0 60196 900.00000 0 7012515.808 10301487.709 22281831.421 10 0 60196 1800.00000 0 4233298.156 10441588.366 22910215.913 10 0 60196 2700.00000 0 1422401.134 10791521.304 23094879.857 10 0 60196 3600.00000 0 -1350545.422 11345608.629 22832278.422 10 0 60196 4500.00000 0 -4018032.274 12086065.228 22127499.513 10 0 60196 5400.00000 0 -6517223.532 12983711.692 20994166.289 10 0 60196 6300.00000 0 -8792313.988 13999181.060 19454178.486 10 0 60196 7200.00000 0 -10796594.954 15084569.751 17537296.943 10 0 60196 8100.00000 0 -12494144.282 16185464.695 15280578.461 10 0 60196 9000.00000 0 -13861071.487 17243262.927 12727670.686 10 0 60196 9900.00000 0 -14886266.842 18197687.505 9927979.410 10 0 60196 10800.00000 0 -15571623.669 18989395.023 6935723.118 10 0 60196 11700.00000 0 -15931724.695 19562565.696 3808891.944 10 0 60196 12600.00000 0 -15993005.518 19867367.134 608130.380 10 0 60196 13500.00000 0 -15792430.161 19862187.663 -2604435.166 10 0 60196 14400.00000 0 -15375734.231 19515544.215 -5766401.444 10 0 60196 15300.00000 0 -14795309.574 18807583.042 -8816302.491 10 0 60196 16200.00000 0 -14107819.719 17731108.328 -11694808.869 10 0 60196 17100.00000 0 -13371647.004 16292093.490 -14345888.089 10 0 60196 18000.00000 0 -12644279.689 14509651.643 -16717902.889 10 0 60196 18900.00000 0 -11979750.111 12415464.529 -18764625.253 10 0 60196 19800.00000 0 -11426232.895 10052692.112 -20446145.684 10 0 60196 20700.00000 0 -11023905.647 7474407.021 -21729659.307 10 0 60196 21600.00000 0 -10803163.367 4741618.208 -22590112.937 10 0 60196 22500.00000 0 -10783262.891 1920965.528 -23010700.016 10 0 60196 23400.00000 0 -10971455.370 -917818.974 -22983193.381 10 0 60196 24300.00000 0 -11362644.048 -3704577.473 -22508109.091 10 0 60196 25200.00000 0 -11939582.211 -6371409.405 -21594697.897 10 0 60196 26100.00000 0 -12673603.194 -8855259.287 -20260764.417 10 0 60196 27000.00000 0 -13525851.615 -11100301.484 -18532317.467 10 0 60196 27900.00000 0 -14448963.609 -13060022.672 -16443058.455 10 0 60196 28800.00000 0 -15389124.667 -14698915.447 -14033718.034 10 0 60196 29700.00000 0 -16288417.488 -15993713.078 -11351254.337 10 0 60196 30600.00000 0 -17087359.893 -16934114.817 -8447928.954 10 0 60196 31500.00000 0 -17727524.742 -17522972.888 -5380279.440 10 0 60196 32400.00000 0 -18154130.372 -17775935.091 -2208009.226 10 0 60196 33300.00000 0 -18318491.419 -17720560.058 1007182.520 10 0 60196 34200.00000 0 -18180226.046 -17394944.513 4202807.335 10 0 60196 35100.00000 0 -17709126.103 -16845922.403 7316805.935 10 0 60196 36000.00000 0 -16886611.397 -16126913.673 10288754.465 10 0 60196 36900.00000 0 -15706706.974 -15295514.884 13061034.738 10 0 60196 37800.00000 0 -14176502.662 -14410934.241 15579945.865 10 0 60196 38700.00000 0 -12316075.925 -13531379.595 17796736.175 10 0 60196 39600.00000 0 -10157881.435 -12711509.328 19668536.252 10 0 60196 40500.00000 0 -7745632.978 -12000052.849 21159176.159 10 0 60196 41400.00000 0 -5132724.008 -11437699.777 22239872.371 10 0 60196 42300.00000 0 -2380252.047 -11055345.338 22889772.489 10 0 60196 43200.00000 0 445272.021 -10872764.370 23096348.521 10 0 60196 44100.00000 0 3274436.006 -10897768.491 22855632.181 10 0 60196 45000.00000 0 6037557.297 -11125880.937 22172288.376 10 0 60196 45900.00000 0 8667325.313 -11540542.288 21059525.783 10 0 60196 46800.00000 0 11101347.878 -12113838.480 19538846.070 10 0 60196 47700.00000 0 13284497.599 -12807721.037 17639636.051 10 0 60196 48600.00000 0 15170962.436 -13575669.092 15398609.721 10 0 60196 49500.00000 0 16725916.410 -14364724.489 12859109.783 10 0 60196 50400.00000 0 17926741.759 -15117815.475 10070280.878 10 0 60196 51300.00000 0 18763752.025 -15776272.256 7086129.268 10 0 60196 52200.00000 0 19240386.034 -16282429.190 3964486.022 10 0 60196 53100.00000 0 19372864.501 -16582204.289 765892.950 10 0 60196 54000.00000 0 19189323.396 -16627547.106 -2447567.690 10 0 60196 54900.00000 0 18728460.158 -16378651.060 -5613477.240 10 0 60196 55800.00000 0 18037749.402 -15805835.703 -8670294.928 10 0 60196 56700.00000 0 17171303.153 -14891017.953 -11558558.434 10 0 60196 57600.00000 0 16187465.801 -13628708.356 -14222046.808 10 0 60196 58500.00000 0 15146245.479 -12026488.373 -16608882.364 10 0 60196 59400.00000 0 14106690.659 -10104946.433 -18672549.349 10 0 60196 60300.00000 0 13124323.245 -7897073.451 -20372808.814 10 0 60196 61200.00000 0 12248737.143 -5447141.323 -21676491.153 10 0 60196 62100.00000 0 11521464.354 -2809109.855 -22558150.308 10 0 60196 63000.00000 0 10974199.217 -44627.537 -23000566.412 10 0 60196 63900.00000 0 10627456.302 2779291.134 -22995086.673 10 0 60196 64800.00000 0 10489718.912 5592815.363 -22541797.580 10 0 60196 65700.00000 0 10557114.351 8325968.755 -21649524.838 10 0 60196 66600.00000 0 10813629.584 10911309.666 -20335660.909 10 0 60196 67500.00000 0 11231857.983 13286509.467 -18625823.473 10 0 60196 68400.00000 0 11774245.113 15396721.218 -16553351.516 10 0 60196 69300.00000 0 12394780.258 17196640.009 -14158649.102 10 0 60196 70200.00000 0 13041061.330 18652169.302 -11488389.988 10 0 60196 71100.00000 0 13656644.859 19741624.339 -8594599.144 10 0 60196 72000.00000 0 14183580.683 20456423.302 -5533629.822 10 0 60196 72900.00000 0 14565023.040 20801238.645 -2365056.986 10 0 60196 73800.00000 0 14747806.815 20793604.097 849490.424 10 0 60196 74700.00000 0 14684879.186 20462995.690 4047534.700 10 0 60196 75600.00000 0 14337483.449 19849427.494 7166967.777 10 0 60196 76500.00000 0 13677002.579 19001623.125 10147258.592 10 0 60196 77400.00000 0 12686384.747 17974841.592 12930625.566 10 0 60196 78300.00000 0 11361090.933 16828450.261 15463151.558 10 0 60196 79200.00000 0 9709525.011 15623347.744 17695820.103 10 0 60196 80100.00000 0 7752928.421 14419345.259 19585453.654 10 0 60196 81000.00000 0 5524743.856 13272616.105 21095536.801 10 0 60196 81900.00000 0 3069474.281 12233319.440 22196909.854 10 0 60196 82800.00000 0 441084.287 11343496.844 22868320.752 10 0 60196 83700.00000 0 -2298990.664 10635328.426 23096825.926 10 0 60196 84600.00000 0 -5084145.716 10129820.076 22878033.479 10 0 60196 85500.00000 0 -7845124.859 9835975.623 22216184.685 10 0 60197 0.00000 0 -10512653.064 9750487.571 21124072.715 10 0 60197 900.00000 0 -13020076.428 9857958.824 19622799.328 10 0 60197 1800.00000 0 -15305899.047 10131646.064 17741375.275 10 0 60197 2700.00000 0 -17316117.622 10534693.719 15516169.228 10 0 60197 3600.00000 0 -19006254.472 11021807.511 12990216.108 10 0 60197 4500.00000 0 -20343006.651 11541297.969 10212396.367 10 0 60197 5400.00000 0 -21305442.666 12037408.759 7236500.914 10 0 60197 6300.00000 0 -21885696.956 12452832.453 4120198.632 10 0 60197 7200.00000 0 -22089132.818 12731308.089 923925.614 10 0 60197 8100.00000 0 -21933966.597 12820190.880 -2290282.929 10 0 60197 9000.00000 0 -21450368.349 12672885.146 -5459995.670 10 0 60197 9900.00000 0 -20679076.291 12251036.769 -8523599.583 10 0 60197 10800.00000 0 -19669582.915 11526391.182 -11421501.826 10 0 60197 11700.00000 0 -18477968.918 10482236.722 -14097295.122 10 0 60197 12600.00000 0 -17164476.152 9114370.442 -16498863.223 10 0 60197 13500.00000 0 -15790922.072 7431543.524 -18579404.190 10 0 60197 14400.00000 0 -14418064.919 5455365.393 -20298350.825 10 0 60197 15300.00000 0 -13103031.185 3219668.497 -21622169.619 10 0 60197 16200.00000 0 -11896914.176 769358.627 -22525022.080 10 0 60197 17100.00000 0 -10842645.339 -1841202.675 -22989275.088 10 0 60197 18000.00000 0 -9973228.352 -4550217.016 -23005849.905 10 0 60197 18900.00000 0 -9310410.592 -7290785.888 -22574402.770 10 0 60197 19800.00000 0 -8863847.939 -9993468.122 -21703333.316 10 0 60197 20700.00000 0 -8630797.883 -12588951.535 -20409620.518 10 0 60197 21600.00000 0 -8596353.400 -15010727.301 -18718489.305 10 0 60197 22500.00000 0 -8734207.024 -17197655.391 -16662914.393 10 0 60197 23400.00000 0 -9007911.897 -19096313.882 -14282971.239 10 0 60197 24300.00000 0 -9372585.428 -20663034.079 -11625047.099 10 0 60197 25200.00000 0 -9776982.284 -21865536.713 -8740928.153 10 0 60197 26100.00000 0 -10165847.725 -22684101.307 -5686781.185 10 0 60197 27000.00000 0 -10482450.434 -23112220.829 -2522050.569 10 0 60197 27900.00000 0 -10671186.496 -23156715.491 691707.076 10 0 60197 28800.00000 0 -10680143.325 -22837302.492 3892026.856 10 0 60197 29700.00000 0 -10463514.364 -22185641.722 7016753.982 10 0 60197 30600.00000 0 -9983762.007 -21243899.220 10005252.240 10 0 60197 31500.00000 0 -9213437.193 -20062890.560 12799578.731 10 0 60197 32400.00000 0 -8136579.066 -18699883.632 15345602.112 10 0 60197 33300.00000 0 -6749635.838 -17216153.949 17594043.108 10 0 60197 34200.00000 0 -5061868.336 -15674395.553 19501417.919 10 0 60197 35100.00000 0 -3095219.383 -14136095.957 21030867.362 10 0 60197 36000.00000 0 -883654.270 -12658984.423 22152857.061 10 0 60197 36900.00000 0 1528000.626 -11294659.273 22845736.496 10 0 60197 37800.00000 0 4085673.499 -10086492.046 23096147.441 10 0 60197 38700.00000 0 6728051.103 -9067894.508 22899274.992 10 0 60197 39600.00000 0 9388889.246 -8261019.433 22258937.081 10 0 60197 40500.00000 0 11999535.655 -7675948.048 21187511.109 10 0 60197 41400.00000 0 14491562.325 -7310397.087 19705698.980 10 0 60197 42300.00000 0 16799399.886 -7149957.087 17842134.550 10 0 60197 43200.00000 0 18862866.168 -7168851.664 15632840.149 10 0 60197 44100.00000 0 20629485.200 -7331186.125 13120541.530 10 0 60197 45000.00000 0 22056501.004 -7592633.370 10353853.180 10 0 60197 45900.00000 0 23112502.748 -7902486.780 7386348.491 10 0 60197 46800.00000 0 23778593.502 -8205994.211 4275531.602 10 0 60197 47700.00000 0 24049053.421 -8446875.086 1081730.000 10 0 60197 48600.00000 0 23931469.041 -8569914.476 -2133071.298 10 0 60197 49500.00000 0 23446322.561 -8523524.317 -5306431.591 10 0 60197 50400.00000 0 22626057.596 -8262162.828 -8376668.934 10 0 60197 51300.00000 0 21513659.998 -7748508.720 -11284063.216 10 0 60197 52200.00000 0 20160812.889 -6955296.792 -13972023.915 10 0 60197 53100.00000 0 18625703.213 -5866735.533 -16388199.063 10 0 60197 54000.00000 0 16970571.986 -4479444.841 -18485503.096 10 0 60197 54900.00000 0 15259111.411 -2802872.171 -20223042.811 10 0 60197 55800.00000 0 13553818.608 -859167.488 -21566922.693 10 0 60197 56700.00000 0 11913417.579 1317479.742 -22490913.354 10 0 60197 57600.00000 0 10390458.129 3682015.422 -22976969.548 10 0 60197 58500.00000 0 9029192.975 6180159.760 -23015587.292 10 0 60197 59400.00000 0 7863822.372 8750442.736 -22605992.823 10 0 60197 60300.00000 0 6917179.983 11326551.721 -21756159.487 10 0 60197 61200.00000 0 6199914.930 13839893.467 -20482652.086 10 0 60197 62100.00000 0 5710203.828 16222263.558 -18810301.652 10 0 60197 63000.00000 0 5434004.051 18408511.708 -16771717.052 10 0 60197 63900.00000 0 5345836.426 20339091.297 -14406643.119 10 0 60197 64800.00000 0 5410062.960 21962386.433 -11761178.214 10 0 60197 65700.00000 0 5582604.152 23236719.164 -8886866.969 10 0 60197 66600.00000 0 5813021.723 24131953.016 -5839686.645 10 0 60197 67500.00000 0 6046877.077 24630626.295 -2678947.734 10 0 60197 68400.00000 0 6228264.262 24728568.518 533868.891 10 0 60197 69300.00000 0 6302408.940 24434975.367 3736314.620 10 0 60197 70200.00000 0 6218222.377 23771940.519 6866191.337 10 0 60197 71100.00000 0 5930701.708 22773465.584 9862760.921 10 0 60197 72000.00000 0 5403074.688 21483991.453 12667922.151 10 0 60197 72900.00000 0 4608598.262 19956514.027 15227332.186 10 0 60197 73800.00000 0 3531935.252 18250364.470 17491451.335 10 0 60197 74700.00000 0 2170051.414 16428747.623 19416491.577 10 0 60197 75600.00000 0 532595.317 14556141.675 20965251.644 10 0 60197 76500.00000 0 -1358254.947 12695667.385 22107823.781 10 0 60197 77400.00000 0 -3468472.076 10906535.813 22822159.922 10 0 60197 78300.00000 0 -5753359.202 9241679.729 23094487.662 10 0 60197 79200.00000 0 -8159180.735 7745665.860 22919569.099 10 0 60197 80100.00000 0 -10625177.884 6452973.358 22300798.325 10 0 60197 81000.00000 0 -13085886.715 5386708.647 21250136.056 10 0 60197 81900.00000 0 -15473664.217 4557808.819 19787882.563 10 0 60197 82800.00000 0 -17721319.144 3964765.813 17942292.777 10 0 60197 83700.00000 0 -19764739.966 3593882.163 15749040.108 10 0 60197 84600.00000 0 -21545411.969 3420047.339 13250538.160 10 0 60197 85500.00000 0 -23012719.621 3408002.145 10495132.186 10 0 60198 0.00000 0 -24125938.725 3514038.345 7536174.880 10 0 60198 900.00000 0 -24855835.731 3688062.445 4431001.619 10 0 60198 1800.00000 0 -25185805.632 3875936.858 1239828.090 10 0 60198 2700.00000 0 -25112502.066 4022000.032 -1975414.200 10 0 60198 3600.00000 0 -24645930.782 4071658.840 -5152278.313 10 0 60198 4500.00000 0 -23809002.166 3973943.200 -8229016.304 10 0 60198 5400.00000 0 -22636560.562 3683914.013 -11145783.470 10 0 60198 6300.00000 0 -21173930.293 3164821.300 -13845808.443 10 0 60198 7200.00000 0 -19475038.856 2389919.711 -16276505.622 10 0 60198 8100.00000 0 -17600195.744 1343862.824 -18390507.519 10 0 60198 9000.00000 0 -15613620.006 23615.380 -20146596.194 10 0 60198 9900.00000 0 -13580820.450 -1561157.097 -21510514.920 10 0 60198 10800.00000 0 -11565938.583 -3388239.686 -22455643.673 10 0 60198 11700.00000 0 -9629166.021 -5423555.942 -22963524.845 10 0 60198 12600.00000 0 -7824344.906 -7622364.968 -23024228.465 10 0 60198 13500.00000 0 -6196852.080 -9930918.740 -22636549.580 10 0 60198 14400.00000 0 -4781855.637 -12288511.151 -21808033.667 10 0 60198 15300.00000 0 -3603016.732 -14629833.542 -20554829.442 10 0 60198 16200.00000 0 -2671690.479 -16887538.336 -18901371.880 10 0 60198 17100.00000 0 -1986658.627 -18994903.453 -16879901.639 10 0 60198 18000.00000 0 -1534404.011 -20888485.766 -14529830.480 10 0 60198 18900.00000 0 -1289913.746 -22510652.186 -11896965.370 10 0 60198 19800.00000 0 -1217975.609 -23811882.091 -9032606.934 10 0 60198 20700.00000 0 -1274911.054 -24752744.553 -5992540.536 10 0 60198 21600.00000 0 -1410669.813 -25305467.595 -2835940.535 10 0 60198 22500.00000 0 -1571195.743 -25455034.126 375790.059 10 0 60198 23400.00000 0 -1700962.267 -25199759.396 3580220.900 10 0 60198 24300.00000 0 -1745568.815 -24551326.767 6715112.421 10 0 60198 25200.00000 0 -1654287.439 -23534281.702 9719626.373 10 0 60198 26100.00000 0 -1382451.355 -22185006.588 12535504.915 10 0 60198 27000.00000 0 -893584.241 -20550220.762 15108195.340 10 0 60198 27900.00000 0 -161180.527 -18685069.646 17387899.053 10 0 60198 28800.00000 0 829938.147 -16650883.703 19330525.218 10 0 60198 29700.00000 0 2082747.080 -14512701.142 20898531.707 10 0 60198 30600.00000 0 3587659.874 -12336657.535 22061638.426 10 0 60198 31500.00000 0 5322702.117 -10187350.435 22797400.583 10 0 60198 32400.00000 0 7254210.511 -8125287.553 23091632.173 10 0 60198 33300.00000 0 9338029.034 -6204523.129 22938672.633 10 0 60198 34200.00000 0 11521153.411 -4470579.150 22341492.316 10 0 60198 35100.00000 0 13743756.840 -2958736.117 21311635.108 10 0 60198 36000.00000 0 15941514.355 -1692762.859 19868999.267 10 0 60198 36900.00000 0 18048130.804 -684136.951 18041460.169 10 0 60198 37800.00000 0 19997968.886 68212.811 15864341.411 10 0 60198 38700.00000 0 21728669.223 577631.800 13379743.274 10 0 60198 39600.00000 0 23183654.307 868944.590 10635740.286 10 0 60198 40500.00000 0 24314412.441 977173.015 7685462.089 10 0 60198 41400.00000 0 25082466.421 945820.934 4586074.202 10 0 60198 42300.00000 0 25460944.227 824797.661 1397677.535 10 0 60198 43200.00000 0 25435685.243 668067.455 -1817852.651 10 0 60198 44100.00000 0 25005834.563 531124.310 -4998066.101 10 0 60198 45000.00000 0 24183899.253 468399.098 -8081151.879 10 0 60198 45900.00000 0 22995262.940 530709.330 -11007143.677 10 0 60198 46800.00000 0 21477177.909 762860.431 -13719092.167 10 0 60198 47700.00000 0 19677276.045 1201501.303 -16164180.812 10 0 60198 48600.00000 0 17651660.334 1873326.458 -18294762.684 10 0 60198 49500.00000 0 15462656.496 2793702.476 -20069297.351 10 0 60198 50400.00000 0 13176318.787 3965778.656 -21453168.853 10 0 60198 51300.00000 0 10859794.447 5380121.268 -22419368.259 10 0 60198 52200.00000 0 8578657.254 7014888.590 -22949027.015 10 0 60198 53100.00000 0 6394321.995 8836540.987 -23031790.256 10 0 60198 54000.00000 0 4361648.129 10801057.518 -22666022.545 10 0 60198 54900.00000 0 2526832.901 12855609.000 -21858841.762 10 0 60198 55800.00000 0 925681.892 14940618.033 -20625980.348 10 0 60198 56700.00000 0 -417671.129 16992119.876 -18991476.527 10 0 60198 57600.00000 0 -1491542.198 18944325.241 -16987201.580 10 0 60198 58500.00000 0 -2296941.535 20732277.279 -14652232.527 10 0 60198 59400.00000 0 -2847275.527 22294490.949 -12032082.836 10 0 60198 60300.00000 0 -3167520.611 23575463.628 -9177806.608 10 0 60198 61200.00000 0 -3292905.837 24527951.226 -6144994.455 10 0 60198 62100.00000 0 -3267161.677 25114914.024 -2992681.466 10 0 60198 63000.00000 0 -3140411.125 25311050.750 217810.529 10 0 60198 63900.00000 0 -2966794.005 25103856.703 3424072.873 10 0 60198 64800.00000 0 -2801926.588 24494162.204 6563827.967 10 0 60198 65700.00000 0 -2700305.206 23496129.829 9576140.778 10 0 60198 66600.00000 0 -2712764.492 22136711.574 12402600.027 10 0 60198 67500.00000 0 -2884098.061 20454589.924 14988446.101 10 0 60198 68400.00000 0 -3250942.125 18498648.161 17283624.212 10 0 60198 69300.00000 0 -3840011.056 16326034.606 19243743.111 10 0 60198 70200.00000 0 -4666758.788 13999902.001 20830921.909 10 0 60198 71100.00000 0 -5734521.955 11586916.157 22014509.916 10 0 60198 72000.00000 0 -7034180.469 9154637.012 22771666.971 10 0 60198 72900.00000 0 -8544349.815 6768879.972 23087794.405 10 0 60198 73800.00000 0 -10232097.422 4491165.694 22956809.462 10 0 60198 74700.00000 0 -12054153.988 2376362.565 22381258.687 10 0 60198 75600.00000 0 -13958570.368 470617.951 21372268.518 10 0 60198 76500.00000 0 -15886752.416 -1190337.610 19949333.988 10 0 60198 77400.00000 0 -17775790.538 -2582444.331 18139949.134 10 0 60198 78300.00000 0 -19560988.456 -3694074.324 15979085.397 10 0 60198 79200.00000 0 -21178487.187 -4526269.197 13508526.903 10 0 60198 80100.00000 0 -22567875.852 -5092444.731 10776074.237 10 0 60198 81000.00000 0 -23674680.968 -5417575.285 7834630.741 10 0 60198 81900.00000 0 -24452630.390 -5536892.146 4741187.862 10 0 60198 82800.00000 0 -24865596.830 -5494150.407 1555728.246 10 0 60198 83700.00000 0 -24889138.797 -5339537.210 -1659932.788 10 0 60198 84600.00000 0 -24511573.189 -5127309.539 -4843345.254 10 0 60198 85500.00000 0 -23734533.183 -4913261.501 -7932638.628 99